FW3725 Weather Reports


time (UTC)temp
F
wind
direction
speed
knots
gust
knots
rain 1hr
in
rain 24hr
in
rain mn
in
humidity
%
barometer
mb
20260507040004 59 68 0.0 0.0 0.00 0.00 0.00 81 1019.7
20260507034502 60 22 0.0 0.0 0.00 0.00 0.00 80 1019.5
20260507033002 61 61 0.0 0.0 0.00 0.00 0.00 79 1019.3
20260507031502 62 64 0.0 0.0 0.00 0.00 0.00 77 1019.0
20260507030000 63 67 0.0 0.0 0.00 0.00 0.00 75 1018.8
20260507024614 64 36 0.0 0.0 0.00 0.00 0.00 73 1018.6
20260507023059 66 59 0.0 0.0 0.00 0.00 0.00 73 1018.4
20260507021600 67 17 0.0 0.0 0.00 0.00 0.00 73 1018.3
20260507014604 69 79 0.0 0.0 0.00 0.00 0.00 70 1018.3
20260507013102 71 281 0.0 0.0 0.00 0.00 0.00 64 1018.2
20260507011559 72 59 0.0 0.0 0.00 0.00 0.00 63 1018.1
20260507010056 72 86 0.0 0.0 0.00 0.00 0.00 62 1018.1
20260507004555 73 78 0.0 0.0 0.00 0.00 0.00 58 1018.1
20260507003100 72 70 0.0 0.0 0.00 0.00 0.00 59 1018.1
20260507001554 73 53 0.0 0.0 0.00 0.00 0.00 59 1018.0
20260507000053 73 263 0.0 0.0 0.00 0.00 0.00 59 1018.1
20260506234603 73 83 0.0 0.0 0.00 0.00 0.00 60 1018.0
20260506233055 73 257 0.0 0.0 0.00 0.00 0.00 59 1018.2
20260506231554 73 40 0.0 0.0 0.00 0.00 0.00 60 1018.3
20260506230046 73 242 0.0 0.0 0.00 0.00 0.00 60 1018.4
20260506224543 72 25 0.0 0.0 0.00 0.00 0.00 60 1018.4
20260506223041 72 66 0.0 0.0 0.00 0.00 0.00 60 1018.6
20260506221537 72 360 0.0 0.0 0.00 0.00 0.00 60 1018.8
20260506220036 72 294 0.0 0.0 0.00 0.00 0.00 60 1018.9
20260506214535 72 259 0.0 0.0 0.00 0.00 0.00 59 1019.2
20260506213038 72 30 0.0 0.0 0.00 0.00 0.00 62 1019.3
20260506211532 72 34 0.0 0.0 0.00 0.00 0.00 60 1019.5
20260506210034 72 91 0.0 0.0 0.00 0.00 0.00 60 1019.8
20260506204529 71 74 0.0 0.0 0.00 0.00 0.00 61 1019.9
20260506203037 71 57 0.0 0.0 0.00 0.00 0.00 61 1020.0
20260506201528 70 238 0.0 0.0 0.00 0.00 0.00 62 1020.2
20260506200025 70 38 0.0 0.0 0.00 0.00 0.00 63 1020.3
20260506194523 69 55 0.0 0.0 0.00 0.00 0.00 62 1020.4
20260506193019 69 283 0.0 0.0 0.00 0.00 0.00 63 1020.5
20260506191518 68 91 0.0 0.0 0.00 0.00 0.00 66 1020.6
20260506190012 67 291 0.0 0.0 0.00 0.00 0.00 67 1020.7
20260506184508 65 63 0.0 0.0 0.00 0.00 0.00 69 1020.8
20260506183008 64 275 0.0 0.0 0.00 0.00 0.00 72 1020.9
20260506181503 63 277 0.0 0.0 0.00 0.00 0.00 74 1021.0
20260506180002 62 271 0.0 0.0 0.00 0.00 0.00 74 1021.0
20260506174502 61 241 0.0 0.0 0.00 0.00 0.00 75 1021.1
20260506173130 61 319 0.0 0.0 0.00 0.00 0.00 76 1021.1
20260506171615 61 286 0.0 0.0 0.00 0.00 0.00 77 1021.2
20260506170055 60 327 0.0 0.0 0.00 0.00 0.00 79 1021.2
20260506164559 59 327 0.0 0.0 0.00 0.00 0.00 80 1021.2
20260506163058 59 290 0.0 0.0 0.00 0.00 0.00 80 1021.2
20260506161603 58 321 0.0 0.0 0.00 0.00 0.00 82 1021.3
20260506160046 58 312 0.0 0.0 0.00 0.00 0.00 83 1021.3
20260506154548 57 302 0.0 0.0 0.00 0.00 0.00 84 1021.3
20260506153040 56 283 0.0 0.0 0.00 0.00 0.00 85 1021.2
20260506151535 56 278 0.0 0.0 0.00 0.00 0.00 85 1021.2
20260506150032 56 279 0.0 0.0 0.00 0.00 0.00 85 1021.2
20260506144534 55 279 0.0 0.0 0.00 0.00 0.00 85 1021.3
20260506143027 55 279 0.0 0.0 0.00 0.00 0.00 85 1021.2
20260506141529 55 307 0.0 0.0 0.00 0.00 0.00 85 1021.0
20260506140023 55 307 0.0 0.0 0.00 0.00 0.00 84 1021.0
20260506134520 55 307 0.0 0.0 0.00 0.00 0.00 84 1020.6
20260506133018 55 346 0.0 0.0 0.00 0.00 0.00 84 1020.4
20260506131527 55 346 0.0 0.0 0.00 0.00 0.00 83 1020.3
20260506130016 55 346 0.0 0.0 0.00 0.00 0.00 83 1020.3
20260506124514 55 346 0.0 0.0 0.00 0.00 0.00 82 1020.1
20260506123014 55 346 0.0 0.0 0.00 0.00 0.00 82 1020.1
20260506121513 55 346 0.0 0.0 0.00 0.00 0.00 82 1020.0
20260506120017 55 346 0.0 0.0 0.00 0.00 0.00 81 1019.9
20260506114511 55 346 0.0 0.0 0.00 0.00 0.00 81 1019.8
20260506113009 55 346 0.0 0.0 0.00 0.00 0.00 81 1019.7
20260506111507 56 346 0.0 0.0 0.00 0.00 0.00 80 1019.7
20260506110006 56 346 0.0 0.0 0.00 0.00 0.00 80 1019.6
20260506104504 56 346 0.0 0.0 0.00 0.00 0.00 80 1019.4
20260506103003 56 346 0.0 0.0 0.00 0.00 0.00 80 1019.4
20260506101506 56 346 0.0 0.0 0.00 0.00 0.00 80 1019.5
20260506100002 56 346 0.0 0.0 0.00 0.00 0.00 80 1019.5
20260506094601 57 346 0.0 0.0 0.00 0.00 0.00 80 1019.5
20260506093059 57 346 0.0 0.0 0.00 0.00 0.00 80 1019.6
20260506091559 57 346 0.0 0.0 0.00 0.00 0.00 80 1019.6
20260506090058 57 346 0.0 0.0 0.00 0.00 0.00 80 1019.4
20260506084622 57 346 0.0 0.0 0.00 0.00 0.00 80 1019.6
20260506083057 57 346 0.0 0.0 0.00 0.00 0.00 80 1019.5
20260506081600 57 346 0.0 0.0 0.00 0.00 0.00 79 1019.6
20260506073051 57 346 0.0 0.0 0.00 0.00 0.00 78 1019.3
20260506071551 57 46 0.0 0.0 0.00 0.00 0.00 78 1019.2
20260506061545 58 51 0.0 0.0 0.00 0.00 0.00 78 1018.9
20260506044622 58 298 0.0 0.0 0.00 0.00 0.00 76 1018.2
20260506043036 58 298 0.0 0.0 0.00 0.00 0.00 76 1018.1
20260506041534 58 298 0.0 0.0 0.00 0.00 0.00 75 1017.9